Weather History for LJLJ - October, 2012

Change the Weather History Date:

Saturday, October 27, 2012

  Actual Average (LOWK) Record (LOWK)
Temperature  
Mean Temperature 52 °F -  
Max Temperature 55 °F 53 °F 70 °F (2013)
Min Temperature 48 °F 37 °F 30 °F (1997)
Degree Days  
Heating Degree Days 14    
Growing Degree Days 2 (Base 50)    
Moisture  
Dew Point 51 °F    
Average Humidity 98    
Maximum Humidity 100    
Minimum Humidity 87    
Precipitation  
Precipitation 0.00 in - - ()
Sea Level Pressure  
Sea Level Pressure 29.26 in    
Wind  
Wind Speed 3 mph ()    
Max Wind Speed 10 mph    
Max Gust Speed -    
Visibility 3.6 miles    
Events Rain , Thunderstorm    
Averages and records for this station are not official NWS values.
T = Trace of Precipitation, MM = Missing Value Source: Averaged Metar Reports

Daily Weather History Graph

Daily Weather History Graph

Search for Another Location

Airport or City:

Trip Planner

Search our weather history database for the weather conditions in past years. The results will help you decide how hot, cold, wet, or windy it might be!

Date:

Astronomy

Oct. 27, 2012 Rise Set
Actual Time 7:36 AM CEST 5:54 PM CEST
Civil Twilight 7:05 AM CEST 6:25 PM CEST
Nautical Twilight 6:30 AM CEST 7:01 PM CEST
Astronomical Twilight 5:55 AM CEST 7:35 PM CEST
Moon 4:36 PM CEST (10/27) 5:08 AM CEST (10/27)
Length of Visible Light 11h 20m
Length of Day
10h 18m
Waxing Gibbous, 95% of the Moon is Illuminated
Oct 27
Waxing Gibbous
Oct 29
Full
Nov 7
Last Quarter
Nov 13
New
Nov 20
First Quarter

Hourly Weather History & Observations

Time (CEST) Temp. Dew Point Humidity Pressure Visibility Wind Dir Wind Speed Gust Speed Precip Events Conditions
12:00 AM 48.2 °F 48.2 °F 100% 29.53 in 2.5 mi SW 3.5 mph - N/A Rain Rain
12:30 AM 50.0 °F 50.0 °F 100% 29.50 in 3.1 mi Variable 2.3 mph - N/A Rain Rain
1:00 AM 50.0 °F 48.2 °F 94% 29.50 in 3.1 mi Variable 2.3 mph - N/A Rain Rain
1:30 AM 48.2 °F 48.2 °F 100% 29.47 in 3.1 mi Variable 2.3 mph - N/A Rain Light Rain
2:00 AM 48.2 °F 48.2 °F 100% 29.44 in 2.5 mi Calm Calm - N/A Rain Rain
2:30 AM 48.2 °F 48.2 °F 100% 29.44 in 2.5 mi ESE 4.6 mph - N/A Rain Rain
3:00 AM 48.2 °F 48.2 °F 100% 29.42 in 2.5 mi Variable 1.2 mph - N/A Rain Rain
3:30 AM 48.2 °F 48.2 °F 100% 29.42 in 2.5 mi Variable 1.2 mph - N/A Rain Rain
4:00 AM 50.0 °F 48.2 °F 94% 29.39 in 3.1 mi WNW 6.9 mph - N/A Rain Heavy Rain
4:30 AM 50.0 °F 48.2 °F 94% 29.36 in 3.1 mi Variable 2.3 mph - N/A Rain Rain
5:00 AM 48.2 °F 48.2 °F 100% 29.33 in 3.1 mi Variable 2.3 mph - N/A Rain Rain
5:30 AM 48.2 °F 48.2 °F 100% 29.30 in 3.7 mi Variable 1.2 mph - N/A Rain Rain
6:00 AM 48.2 °F 48.2 °F 100% 29.30 in 3.1 mi Calm Calm - N/A Rain Light Rain
6:30 AM 48.2 °F 48.2 °F 100% 29.27 in 3.1 mi East 2.3 mph - N/A Rain Light Rain
7:00 AM 48.2 °F 48.2 °F 100% 29.24 in 3.1 mi East 2.3 mph - N/A Rain Light Rain
7:30 AM 50.0 °F 48.2 °F 94% 29.24 in 3.1 mi SSW 2.3 mph - N/A Rain Rain
8:00 AM 50.0 °F 48.2 °F 94% 29.24 in 1.9 mi Variable 1.2 mph - N/A Rain Rain
8:30 AM 50.0 °F 48.2 °F 94% 29.24 in 3.7 mi Calm Calm - N/A Rain Light Rain
9:00 AM 50.0 °F 50.0 °F 100% 29.21 in 3.7 mi ENE 3.5 mph - N/A Rain Light Rain
9:30 AM 50.0 °F 50.0 °F 100% 29.21 in 3.7 mi Variable 2.3 mph - N/A Rain Light Rain
10:00 AM 51.8 °F 51.8 °F 100% 29.21 in 3.7 mi Variable 2.3 mph - N/A Rain Light Rain
10:30 AM 51.8 °F 51.8 °F 100% 29.21 in 3.7 mi SSE 4.6 mph - N/A Rain Rain
11:00 AM 51.8 °F 51.8 °F 100% 29.21 in 3.7 mi Calm Calm - N/A Rain Rain
11:30 AM 51.8 °F 51.8 °F 100% 29.21 in 2.5 mi Variable 2.3 mph - N/A Rain Rain
12:00 PM 51.8 °F 51.8 °F 100% 29.21 in 2.5 mi Variable 2.3 mph - N/A   Overcast
12:30 PM 53.6 °F 51.8 °F 94% 29.21 in 1.2 mi East 1.2 mph - N/A Rain , Thunderstorm Thunderstorms and Rain
1:00 PM 53.6 °F 53.6 °F 100% 29.21 in 6.2 mi ESE 4.6 mph - N/A Rain Light Rain
1:30 PM 53.6 °F 53.6 °F 100% 29.18 in 6.2 mi East 5.8 mph - N/A Rain Light Rain
2:00 PM 53.6 °F 53.6 °F 100% 29.18 in 6.2 mi East 4.6 mph - N/A Rain Light Rain
2:30 PM 53.6 °F 53.6 °F 100% 29.18 in 6.2 mi East 3.5 mph - N/A Rain Light Rain
3:00 PM 53.6 °F 53.6 °F 100% 29.18 in 6.2 mi ENE 3.5 mph - N/A Rain Light Rain
3:30 PM 53.6 °F 53.6 °F 100% 29.18 in 6.2 mi ENE 4.6 mph - N/A Rain Light Rain
4:00 PM 53.6 °F 53.6 °F 100% 29.15 in 6.2 mi ENE 3.5 mph - N/A Rain Light Rain
4:30 PM 55.4 °F 53.6 °F 94% 29.15 in 6.2 mi ENE 4.6 mph - N/A Rain Light Rain
5:00 PM 53.6 °F 53.6 °F 100% 29.15 in 6.2 mi Calm Calm - N/A Rain Light Rain
5:30 PM 53.6 °F 53.6 °F 100% 29.15 in 6.2 mi Calm Calm - N/A Rain Rain
6:00 PM 53.6 °F 53.6 °F 100% 29.15 in 4.3 mi East 4.6 mph - N/A Rain , Thunderstorm Rain
6:30 PM 55.4 °F 53.6 °F 94% 29.15 in 2.5 mi Variable 3.5 mph - N/A Rain , Thunderstorm Rain
7:00 PM 55.4 °F 53.6 °F 94% 29.15 in 2.5 mi Variable 2.3 mph - N/A Rain , Thunderstorm Rain Showers
7:30 PM 53.6 °F 53.6 °F 100% 29.15 in 2.5 mi NNE 4.6 mph - N/A Rain , Thunderstorm Rain
8:00 PM 53.6 °F 53.6 °F 100% 29.18 in 2.5 mi West 3.5 mph - N/A Rain , Thunderstorm Rain Showers
8:30 PM 53.6 °F 53.6 °F 100% 29.18 in 2.5 mi Variable 1.2 mph - N/A Rain Rain Showers
9:00 PM 53.6 °F 53.6 °F 100% 29.18 in 3.1 mi Calm Calm - N/A Rain Rain Showers
9:30 PM 53.6 °F 53.6 °F 100% 29.18 in 2.5 mi Variable 1.2 mph - N/A Rain Rain Showers
10:00 PM 53.6 °F 53.6 °F 100% 29.21 in 1.9 mi WSW 4.6 mph - N/A Rain Rain
10:30 PM 50.0 °F 50.0 °F 100% 29.24 in 3.1 mi WNW 9.2 mph - N/A Rain Rain
11:00 PM 50.0 °F 46.4 °F 87% 29.24 in 3.7 mi NW 10.4 mph - N/A Rain Rain
11:30 PM 48.2 °F 46.4 °F 93% 29.30 in 3.1 mi West 10.4 mph - N/A Rain Rain